Hourly Data Report for September 03, 2017

All times are specified in Local Standard Time (LST). Add 1 hour to adjust for Daylight Saving Time where and when it is observed.

WINNIPEG A CS
MANITOBA

49°55'00.000" N
97°14'58.000" W
238.70 m
502S001
71849
XWG

Download Data

Hourly Data (September 2017)
Hourly Data Report for September 3, 2017
Temp Definition
°C
Dew Point Temp Definition
°C
Rel Hum Definition
%
Wind Dir Definition
10's deg

Wind Spd Definition
km/h
Visibility Definition
km
Stn Press Definition
kPa
Hmdx Definition


Wind Chill Definition


Weather Definition


TIME
00:00 15.9 8.5 61 19 8   98.14     LegendNANA
01:00 16.2 8.0 58 21 9   98.10     LegendNANA
02:00 16.0 8.0 59 22 9   98.08     LegendNANA
03:00 16.4 7.9 57   0   98.09     LegendNANA
04:00 14.7 9.9 73 19 6   98.03     LegendNANA
05:00 14.6 7.7 63 22 6   98.03     LegendNANA
06:00 14.7 8.2 65 22 7   98.05     LegendNANA
07:00 14.9 8.4 65 22 5   98.00     LegendNANA
08:00 16.1 9.4 64 19 7   97.93     LegendNANA
09:00 18.1 10.2 60 35 4   97.92     LegendNANA
10:00 19.9 10.3 54 1 4   97.89     LegendNANA
11:00 21.5 10.3 49 2 8   97.87     LegendNANA
12:00 22.5 9.8 45 1 14   97.88     LegendNANA
13:00 21.1 9.9 49 1 13   97.89     LegendNANA
14:00 20.8 9.6 48 35 8   97.90     LegendNANA
15:00 20.0 10.0 53 36 25   98.03     LegendNANA
16:00 21.7 10.9 50 33 25   98.02     LegendNANA
17:00 21.3 11.6 54 31 34   98.01     LegendNANA
18:00 20.2 11.7 58 31 21   98.05     LegendNANA
19:00 17.1 10.5 65 29 13   98.07     LegendNANA
20:00 14.8 10.8 77 34 11   98.14     LegendNANA
21:00 11.8 9.6 87 30 10   98.20     LegendNANA
22:00 10.3 8.7 90 28 12   98.20     LegendNANA
23:00 11.1 9.0 87 27 16   98.21     LegendNANA

Notes on Data Quality.

Legend

  • E = Estimated
  • M = Missing
  • NA = Not Available
  • ‡ = Partner data that is not subject to review by the National Climate Archives
Date modified: